www.pogodaiklimat.ru

Погода и климат >> Архив погоды >> Мексика >> Рио-Верде


ПОГОДА в Рио-Верде

  • Прогноз погоды в Рио-Верде
  • Монитор погоды в Рио-Верде

АРХИВ ПОГОДЫ в Рио-Верде

Время (UTC), дата Ветер
(напр.,м/с)
 
Видим.   Явления Облачность Т
(С)
Тd
(С)
f
(%)
Тe
(С)
Тes
(С)
Комфортность P
(гПа)
Po
(гПа)
Тmin
(С)
Tmax
(С)
R
(мм)
R24
(мм)
S
(см)
06 19.03 Ю 4 10 км 10/0
[As op]
+11.6 +10.6 94 +9 +9 1021.7 910.3 +10.0 +21.2
12 19.03 В 1 10 км 10/0
[As op]
+11.4 +10.0 91 +11 +11 1020.3 907.7 +9.4 +21.2
15 19.03 штиль 0 16 км 10/0
[As op]
+12.4 +10.7 89 +12 +14 1022.4 909.5
18 19.03 штиль 0 18 км 8/8 600 м
[Frnb]
+17.8 +14.1 79 +18 +23 1021.5 909.0 +9.4 +18.0
00 20.03 В 3 20 км 10/0
[As op]
+19.0 +15.4 80 +21 +21 комфорт 1015.2 905.3 +9.4 +25.2
03 20.03 В 4 10 км 10/0
[As op]
+15.2 +12.6 84 +14 +14 1017.9 908.0
06 20.03 ЮВ 3 10 км 10/0
[As op]
+14.0 +12.7 92 +13 +13 1019.7 909.5 +25.2
12 20.03 штиль 0 10 км 10/5 500 м
[Frnb As op]
+14.0 +14 +14 1019.1 907.6 +11.7 +25.2
15 20.03 Ю 1 15 км 10/0
[As op]
+14.6 +13.3 92 +15 +16 1021.4 909.5
18 20.03 Ю 1 20 км 8/0 2000 м
[Ac cuf]
+21.0 +16.6 76 +26 +36 душно 1020.5 909.0 +11.7 +21.0
03 21.03 ЮВ 3 10 км 8/0
[Ac trans]
+18.9 +14.4 75 +20 +20 1017.6 908.8
06 21.03 В 3 10 км 10/0
[As op]
+17.2 +13.8 80 +17 +17 1018.7 909.8 +28.0
12 21.03 штиль 0 10 км 9/0
[Ac cuf]
+17.0 +14.8 87 +17 +17 1019.3 909.0 +15.0 +28.0
15 21.03 В 2 15 км 9/0 2000 м
[Ac cuf]
+18.0 +15.3 84 +19 +21 1021.6 910.9
18 21.03 ЮВ 2 18 км 9/0 2000 м
[Ac cuf]
+22.4 +17.4 73 +27 +34 душно 1020.6 910.2 +15.0 +22.5
00 22.03 Ю 3 20 км 8/0
[As op]
+20.1 +13.4 65 +22 +23 комфорт 1017.2 907.0 +15.0 +26.0
03 22.03 ЮВ 3 10 км 10/0
[As op]
+17.4 +14.5 83 +17 +17 1017.3 908.4
06 22.03 ЮВ 3 10 км 10/0
[As op]
+16.2 +14.3 89 +16 +16 1018.7 909.3 +26.0
12 22.03 штиль 0 10 км 10/0
[As op]
+16.4 +14.5 89 +16 +16 1018.5 907.9 +14.7 +26.0
15 22.03 штиль 0 16 км 8/0
[Ac cuf]
+18.2 +15.5 84 +18 +22 1020.2 909.3
18 22.03 Ю 1 20 км 1/0
[Ac trans]
+24.4 +18.7 71 +29 +50 душно 1018.0 907.7 +14.7 +25.0
00 23.03 ЮВ 3 20 км слаб. морось {дождь} 8/3 840 м
[Sc diur, vesp Ac trans]
+19.5 +17.4 88 +22 +22 комфорт 1010.7 902.9 +14.7 +32.0
03 23.03 Ю 3 10 км 8/0
[As op]
+18.5 +16.9 90 +19 +19 1013.8 905.8
12 23.03 штиль 0 10 км 9/0 2000 м
[As op]
+16.6 +15.2 91 +16 +16 1016.4 906.4 +15.9 +32.0
15 23.03 ЮЗ 1 18 км 4/4 660 м
[Cu hum]
+18.8 +16.1 84 +21 +26 комфорт 1017.8 907.5
18 23.03 ЮВ 1 25 км ясно +27.1 +20.1 66 +33 +56 опасность
солнечного
удара
1015.6 906.1 +15.9 +27.8
21 23.03 СВ 2 25 км ясно +32.6 +22.0 54 +41 +55 опасность
перегрева
1009.4 901.7
00 24.03 В 4 20 км ясно +28.7 +21.9 67 +37 +38 очень
душно
1007.4 901.2 +15.9 +34.4
03 24.03 ЮВ 3 10 км ясно +22.0 +18.6 81 +27 +27 душно 1011.2 905.0
06 24.03 В 2 10 км 9/0
[As op]
+20.7 +18.5 87 +25 +25 комфорт 1013.8 907.1 +34.4
12 24.03 штиль 0 10 км 9/0 2000 м
[As op]
+18.8 +17.3 91 +20 +20 1015.2 906.3 +18.3 +34.4
15 24.03 В 1 15 км 5/5 700 м
[Cu hum]
+20.2 +17.9 87 +25 +28 комфорт 1017.8 908.3
18 24.03 С 1 20 км ясно +27.2 +21.7 72 +35 +57 опасность
солнечного
удара
1016.1 907.1 +17.8 +27.8
21 24.03 ЮВ 3 25 км ясно +35.1 +24.1 53 +47 +58 опасность
перегрева
1010.1 902.9
00 25.03 В 4 20 км ясно +31.9 +20.2 50 +38 +39 очень
душно
1006.9 901.3 +17.8 +36.2
03 25.03 ЮВ 4 10 км ясно +23.7 +19.6 78 +29 +29 душно 1009.9 904.4
06 25.03 В 2 10 км 4/0
[Ac trans]
+20.6 +18.7 89 +25 +25 комфорт 1012.7 906.6 +36.2
12 25.03 СВ 2 10 км 5/0
[Ac trans]
+17.6 +14.7 83 +18 +18 1017.7 906.5 +16.6 +36.2
15 25.03 Ю 2 20 км 5/0
[Ac trans]
+20.1 +10.7 55 +22 +27 комфорт 1017.6 908.0
18 25.03 ЮВ 1 25 км ясно +28.8 +22.3 68 +38 +60 опасность
солнечного
удара
1015.1 906.1 +16.6 +29.4
00 26.03 В 5 20 км ясно +28.4 +18.8 56 +34 +34 очень
душно
1009.2 903.3 +16.6 +37.3
03 26.03 ЮВ 4 10 км ясно +22.8 +18.5 77 +29 +29 очень
душно
1012.2 906.5

 

Местоположение метеостанции Рио-Верде (Мексика): широта 21.93 долгота -99.98 высота над уровнем моря 983 м.

В архиве по умолчанию представлена погода в Рио-Верде за последнюю неделю. Архивные данные за месяц целиком и за предыдущие месяцы, начиная с января 2011 года, Вы можете получить, выбрав интересующий диапазон дат из раскрывающегося списка и нажав кнопку "Ввод!".


*Определитесь, кто Вы:
робот инопланетянин человек

Внимание! Время в таблицах - всемирное. Для получения местного времени необходимо прибавить поправку, которая равна -6 ч.

Смотрите также архив погоды в соседних городах и на ближайших метеорологических станциях:

Погода в Сан-Луис-Потоси (Мексика) (99 км)
Погода в Тамуине (Мексика) (126 км)
Погода в Маталапе (Мексика) (139 км)
Погода в Керетаро (Мексика) (156 км)
Погода в Гуанахуато (Мексика) (163 км)
Погода в Лагос де Морено (Мексика) (211 км)
Погода в Сьюдад-Виктории (Мексика) (218 км)
Погода в Тампико (Мексика) (222 км)
Погода в Пачуке (Мексика) (237 км)
Погода в Агуаскальентесе (Мексика) (240 км)

Пояснения к столбцам:

Ветер - указаны скорость ветра в м/с - средняя за 10 мин, порывы в срок и между сроками (в фигурных скобках) и направление, откуда дует ветер: С - северный, СВ - северо-восточный, В - восточный, ЮВ - юго-восточный, Ю - южный, ЮЗ - юго-западный, З - западный, СЗ - северо-западный.
Видимость - горизонтальная дальность видимости в метрах или километрах. При видимости от 1 до 10 км при отсутствии осадков обычно наблюдается дымка, при ухудшении видимости до 1 км и менее - туман. В сухую погоду видимость может ухудшаться дымом, пылью или мглою.
Явления - указаны атмосферные явления, наблюдавшиеся в срок или в последний час перед сроком; фигурными скобками обозначены явления, наблюдавшиеся между сроками (за 1-3 часа до срока); квадратными скобками обозначены град или гололедные отложения с указанием их диаметра в мм.
Облачность - указаны через наклонную черту общая и нижняя облачность в баллах и высота нижней границы облаков в метрах; квадратными скобками обозначены формы облаков: Ci - перистые, Cs - перисто-слоистые, Cc - перисто-кучевые, Ac - высококучевые, As - высокослоистые, Sc - слоисто-кучевые, Ns - слоисто-дождевые, Cu - кучевые, Cb - кучево-дождевые. Подробнее классификацию облаков см. в Атласе облаков (PDF).
T - Температура воздуха - температура, измеренная на высоте 2 м над землей.
Td - Температура точки росы - температура, при понижении до которой содержащийся в воздухе водяной пар достигнет насыщения.
f - Относительная влажность воздуха - влажноcть воздуха, измеренная на высоте 2 м над землей.
Te - Эффективная температура - температура, которую ощущает одетый по сезону человек в тени. Характеристика душности погоды. При расчете учитывается влияние влажности воздуха и скорости ветра на теплоощущения человека.
Tes - Эффективная температура на солнце - температура, которую ощущает человек, с поправкой на солнечный нагрев. Характеристика знойности погоды. Зависит от высоты солнца над горизонтом, облачности и скорости ветра. Ночью, в пасмурную погоду, а также при ветре 12 м/с и более поправка равна нулю.
P - Атмосферное давление - приведенное к уровню моря атмосферное давление.
Po - Атмосферное давление - измеренное на уровне метеостанции атмосферное давление.
Tmin - Минимальная температура - минимум температуры воздуха на высоте 2 м над землей.
Tmax - Максимальная температура - максимум температуры воздуха на высоте 2 м над землей.
R - Количество осадков - Количество выпавших осадков за период времени, мм. При наведении курсора мыши на число - период времени, за который выпало указанное количество осадков.
R24 - Количество осадков - Количество выпавших осадков за 24 часа, мм.
S - Снежный покров - Высота снежного покрова, см. При наведении курсора мыши на число - состояние снежного покрова и степень покрытия местности в баллах.